• In Czech Republic
  • List of Countries
  • For 7 days
  • Water Temperature
  • Satellite Maps
  • Weather Map
  • Weather Widgets
  • user-avatar
    Login

    Hourly Weather Batina

    Today, 29 June, Thursday

    Time Temperature Precipitation Wind Pressure Humidity
    00:00 +24°C° 0 mm 2 mps 669 mmHg 47%
    01:00 +23°C° 0 mm 1 mps 669 mmHg 50%
    02:00 +23°C° 0 mm 1 mps 669 mmHg 53%
    03:00 +22°C° 0 mm 1 mps 669 mmHg 56%
    04:00 +23°C° 0 mm 1 mps 669 mmHg 52%
    05:00 +24°C° 0 mm 1 mps 669 mmHg 47%
    06:00 +25°C° 0 mm 1 mps 670 mmHg 43%
    07:00 +27°C° 0 mm 2 mps 670 mmHg 34%
    08:00 +30°C° 0 mm 2 mps 671 mmHg 25%
    09:00 +33°C° 0 mm 3 mps 672 mmHg 17%
    10:00 +35°C° 0 mm 4 mps 672 mmHg 14%
    11:00 +36°C° 0 mm 5 mps 672 mmHg 12%
    12:00 +38°C° 0 mm 6 mps 672 mmHg 10%
    13:00 +38°C° 0 mm 6 mps 672 mmHg 10%
    14:00 +38°C° 0 mm 7 mps 672 mmHg 11%
    15:00 +38°C° 0 mm 7 mps 671 mmHg 11%
    16:00 +36°C° 0 mm 5 mps 671 mmHg 12%
    17:00 +35°C° 0 mm 4 mps 671 mmHg 14%
    18:00 +34°C° 0 mm 3 mps 670 mmHg 15%
    19:00 +31°C° 0 mm 3 mps 670 mmHg 20%
    20:00 +29°C° 0 mm 3 mps 670 mmHg 24%
    21:00 +27°C° 0 mm 2 mps 670 mmHg 28%
    22:00 +26°C° 0 mm 2 mps 670 mmHg 32%
    23:00 +26°C° 0 mm 2 mps 669 mmHg 36%

    Tomorrow, 30 June, Friday

    Time Temperature Precipitation Wind Pressure Humidity
    00:00 +25°C° 0 mm 2 mps 669 mmHg 40%
    01:00 +24°C° 0 mm 2 mps 669 mmHg 42%
    02:00 +24°C° 0 mm 2 mps 668 mmHg 44%
    03:00 +23°C° 0 mm 2 mps 668 mmHg 46%
    04:00 +24°C° 0 mm 2 mps 668 mmHg 44%
    05:00 +24°C° 0 mm 2 mps 669 mmHg 43%
    06:00 +25°C° 0 mm 2 mps 669 mmHg 41%
    07:00 +27°C° 0 mm 3 mps 670 mmHg 35%
    08:00 +29°C° 0 mm 4 mps 671 mmHg 30%
    09:00 +32°C° 0 mm 5 mps 671 mmHg 24%
    10:00 +33°C° 0 mm 5 mps 671 mmHg 23%
    11:00 +33°C° 0 mm 5 mps 672 mmHg 21%
    12:00 +34°C° 0 mm 5 mps 672 mmHg 19%
    13:00 +34°C° 0 mm 5 mps 671 mmHg 21%
    14:00 +33°C° 0 mm 5 mps 671 mmHg 23%
    15:00 +33°C° 0 mm 4 mps 671 mmHg 25%
    16:00 +30°C° 0.3 mm 4 mps 671 mmHg 32%
    17:00 +29°C° 0.3 mm 4 mps 670 mmHg 38%
    18:00 +27°C° 0.3 mm 4 mps 670 mmHg 45%
    19:00 +25°C° 0.1 mm 4 mps 670 mmHg 53%
    20:00 +23°C° 0.1 mm 4 mps 670 mmHg 60%
    21:00 +21°C° 0.1 mm 4 mps 671 mmHg 68%
    22:00 +20°C° 0 mm 4 mps 670 mmHg 70%
    23:00 +20°C° 0 mm 4 mps 670 mmHg 73%

    Day after tomorrow, 1 July, Saturday

    Time Temperature Precipitation Wind Pressure Humidity
    00:00 +19°C° 0 mm 4 mps 670 mmHg 75%
    01:00 +19°C° 0 mm 4 mps 670 mmHg 76%
    02:00 +18°C° 0 mm 3 mps 670 mmHg 76%
    03:00 +18°C° 0 mm 3 mps 670 mmHg 77%
    04:00 +18°C° 0 mm 3 mps 670 mmHg 74%
    05:00 +18°C° 0 mm 3 mps 670 mmHg 71%
    06:00 +19°C° 0 mm 4 mps 671 mmHg 68%
    07:00 +20°C° 0 mm 3 mps 671 mmHg 59%
    08:00 +22°C° 0 mm 3 mps 672 mmHg 50%
    09:00 +25°C° 0 mm 3 mps 673 mmHg 41%
    10:00 +26°C° 0 mm 3 mps 673 mmHg 35%
    11:00 +28°C° 0 mm 3 mps 673 mmHg 30%
    12:00 +29°C° 0 mm 3 mps 674 mmHg 25%
    13:00 +30°C° 0 mm 3 mps 674 mmHg 24%
    14:00 +30°C° 0 mm 3 mps 674 mmHg 22%
    15:00 +31°C° 0 mm 3 mps 673 mmHg 21%
    16:00 +30°C° 0 mm 4 mps 673 mmHg 26%
    17:00 +28°C° 0 mm 5 mps 673 mmHg 31%
    18:00 +26°C° 0 mm 6 mps 673 mmHg 36%
    19:00 +25°C° 0 mm 5 mps 673 mmHg 42%
    20:00 +22°C° 0 mm 4 mps 673 mmHg 48%
    21:00 +20°C° 0 mm 4 mps 674 mmHg 54%
    22:00 +19°C° 0 mm 4 mps 673 mmHg 56%
    23:00 +18°C° 0 mm 3 mps 673 mmHg 58%

    2 July, Sunday

    Time Temperature Precipitation Wind Pressure Humidity
    00:00 +17°C° 0 mm 3 mps 673 mmHg 60%
    01:00 +17°C° 0 mm 2 mps 673 mmHg 61%
    02:00 +16°C° 0 mm 2 mps 673 mmHg 61%
    03:00 +16°C° 0 mm 2 mps 673 mmHg 62%
    04:00 +16°C° 0 mm 2 mps 673 mmHg 59%
    05:00 +17°C° 0 mm 2 mps 673 mmHg 56%
    06:00 +17°C° 0 mm 2 mps 674 mmHg 53%
    07:00 +19°C° 0 mm 2 mps 674 mmHg 45%
    08:00 +21°C° 0 mm 2 mps 675 mmHg 37%
    09:00 +24°C° 0 mm 2 mps 675 mmHg 29%
    10:00 +25°C° 0 mm 3 mps 676 mmHg 25%
    11:00 +27°C° 0 mm 3 mps 676 mmHg 22%
    12:00 +28°C° 0 mm 3 mps 676 mmHg 19%
    13:00 +29°C° 0 mm 3 mps 676 mmHg 18%
    14:00 +29°C° 0 mm 4 mps 676 mmHg 17%
    15:00 +30°C° 0 mm 4 mps 676 mmHg 16%
    16:00 +28°C° 0 mm 4 mps 675 mmHg 21%
    17:00 +27°C° 0 mm 5 mps 675 mmHg 26%
    18:00 +26°C° 0 mm 5 mps 675 mmHg 30%
    19:00 +23°C° 0 mm 5 mps 675 mmHg 40%
    20:00 +21°C° 0 mm 4 mps 675 mmHg 51%
    21:00 +19°C° 0 mm 4 mps 675 mmHg 61%
    22:00 +18°C° 0 mm 3 mps 675 mmHg 65%
    23:00 +18°C° 0 mm 3 mps 675 mmHg 69%

    3 July, Monday

    Time Temperature Precipitation Wind Pressure Humidity
    00:00 +17°C° 0 mm 3 mps 674 mmHg 73%
    01:00 +16°C° 0 mm 3 mps 674 mmHg 74%
    02:00 +16°C° 0 mm 2 mps 674 mmHg 74%
    03:00 +16°C° 0 mm 2 mps 674 mmHg 75%
    04:00 +16°C° 0 mm 2 mps 674 mmHg 70%
    05:00 +17°C° 0 mm 2 mps 674 mmHg 66%
    06:00 +17°C° 0 mm 2 mps 675 mmHg 61%
    07:00 +19°C° 0 mm 2 mps 675 mmHg 53%
    08:00 +21°C° 0 mm 2 mps 676 mmHg 45%
    09:00 +24°C° 0 mm 2 mps 676 mmHg 37%
    10:00 +26°C° 0 mm 2 mps 676 mmHg 32%
    11:00 +27°C° 0 mm 3 mps 676 mmHg 28%
    12:00 +29°C° 0 mm 3 mps 676 mmHg 24%
    13:00 +29°C° 0 mm 4 mps 676 mmHg 23%
    14:00 +30°C° 0 mm 4 mps 676 mmHg 21%
    15:00 +32°C° 0 mm 4 mps 676 mmHg 20%
    16:00 +30°C° 0 mm 4 mps 675 mmHg 24%
    17:00 +29°C° 0 mm 4 mps 675 mmHg 27%
    18:00 +28°C° 0 mm 4 mps 675 mmHg 30%
    19:00 +26°C° 0 mm 3 mps 675 mmHg 38%
    20:00 +24°C° 0 mm 2 mps 674 mmHg 46%
    21:00 +21°C° 0 mm 2 mps 674 mmHg 54%
    22:00 +22°C° 0 mm 1 mps 674 mmHg 57%
    23:00 +21°C° 0 mm 1 mps 674 mmHg 61%

    4 July, Tuesday

    Time Temperature Precipitation Wind Pressure Humidity
    00:00 +20°C° 0 mm 1 mps 673 mmHg 64%
    01:00 +20°C° 0 mm 1 mps 673 mmHg 63%
    02:00 +20°C° 0 mm 1 mps 673 mmHg 63%
    03:00 +20°C° 0 mm 1 mps 672 mmHg 63%
    04:00 +21°C° 0 mm 1 mps 673 mmHg 58%
    05:00 +22°C° 0 mm 1 mps 673 mmHg 53%
    06:00 +23°C° 0 mm 1 mps 674 mmHg 48%
    07:00 +25°C° 0 mm 2 mps 674 mmHg 42%
    08:00 +28°C° 0 mm 3 mps 675 mmHg 36%
    09:00 +30°C° 0 mm 3 mps 675 mmHg 30%
    10:00 +32°C° 0 mm 4 mps 675 mmHg 28%
    11:00 +33°C° 0 mm 4 mps 675 mmHg 27%
    12:00 +34°C° 0 mm 4 mps 675 mmHg 25%
    13:00 +34°C° 0 mm 4 mps 675 mmHg 24%
    14:00 +35°C° 0 mm 4 mps 674 mmHg 23%
    15:00 +35°C° 0 mm 4 mps 674 mmHg 22%
    16:00 +34°C° 0 mm 3 mps 674 mmHg 24%
    17:00 +33°C° 0 mm 3 mps 674 mmHg 25%
    18:00 +33°C° 0 mm 3 mps 673 mmHg 26%
    19:00 +30°C° 0 mm 2 mps 673 mmHg 29%
    20:00 +28°C° 0 mm 2 mps 673 mmHg 33%
    21:00 +26°C° 0 mm 2 mps 673 mmHg 36%
    22:00 +26°C° 0 mm 1 mps 673 mmHg 36%
    23:00 +25°C° 0 mm 1 mps 672 mmHg 37%
    Show more